Location: *
(43.6428°N, 11.5461°E)
Time: 09:28:53
(UTC+00:00)

STARLINK-29 - Pass Details

Date: 21 October 2019
Orbit: 438 x 448 km, 53.0° (Epoch: 21 November)

Event Time Altitude Azimuth Distance (km) Brightness Sun altitude
Rises 17:22:46 0° 307° (NW) 2,434 7.8 -11.8°
Reaches altitude 10° 17:24:59 10° 315° (NW) 1,564 6.5 -12.2°
Maximum altitude 17:28:19 40° 27° (NNE) 665 3.8 -12.8°
Enters shadow 17:30:02 23° 83° (E) 982 4.3 -13.1°
